Farmingdale, NY

3:59 AM EDT on May 29, 2017 (GMT -0400)
Republic

Weather History for KFRG - March, 2014

Change the Weather History Date:

Tuesday, March 18, 2014

  Actual Average Record
Temperature  
Mean Temperature 32 °F -  
Max Temperature 42 °F 44 °F 75 °F (2011)
Min Temperature 23 °F 31 °F 23 °F (2014)
Degree Days  
Heating Degree Days 33    
Moisture  
Dew Point 14 °F    
Average Humidity 51    
Maximum Humidity 78    
Minimum Humidity 25    
Precipitation  
Precipitation 0.00 in - - ()
Sea Level Pressure  
Sea Level Pressure 30.25 in    
Wind  
Wind Speed 6 mph (ENE)    
Max Wind Speed 13 mph    
Max Gust Speed 18 mph    
Visibility 10 miles    
Events      
Averages and records for this station are not official NWS values.
T = Trace of Precipitation, MM = Missing Value Source: NWS Daily Summary

Daily Weather History Graph

Daily Weather History Graph

Search for Another Location

Airport or City:

Trip Planner

Search our weather history database for the weather conditions in past years. The results will help you decide how hot, cold, wet, or windy it might be!

Date:

Astronomy

Mar. 18, 2014 Rise Set
Actual Time 7:00 AM EDT 7:03 PM EDT
Civil Twilight 6:33 AM EDT 7:30 PM EDT
Nautical Twilight 6:01 AM EDT 8:02 PM EDT
Astronomical Twilight 5:28 AM EDT 8:35 PM EDT
Moon 9:19 PM EDT (3/18) 7:47 AM EDT (3/18)
Length of Visible Light 12h 57m
Length of Day
12h 03m
Waning Gibbous, 96% of the Moon is Illuminated
Mar 18
Waning Gibbous
Mar 23
Last Quarter
Mar 30
New
Apr 7
First Quarter
Apr 15
Full

Hourly Weather History & Observations

Time (EDT) Temp. Windchill Dew Point Humidity Pressure Visibility Wind Dir Wind Speed Gust Speed Precip Events Conditions
12:53 AM 25.0 °F 20.7 °F 3.9 °F 41% 30.14 in 10.0 mi NE 3.5 mph - N/A   Clear
1:53 AM 24.1 °F 18.2 °F 6.1 °F 46% 30.15 in 10.0 mi North 4.6 mph - N/A   Clear
2:53 AM 23.0 °F 17.0 °F 6.1 °F 48% 30.16 in 10.0 mi NNE 4.6 mph - N/A   Clear
3:53 AM 23.0 °F 15.8 °F 6.1 °F 48% 30.16 in 10.0 mi NNE 5.8 mph - N/A   Clear
4:53 AM 24.1 °F 19.7 °F 5.0 °F 44% 30.18 in 10.0 mi NE 3.5 mph - N/A   Clear
5:53 AM 23.0 °F 17.0 °F 8.1 °F 53% 30.18 in 10.0 mi NE 4.6 mph - N/A   Clear
6:53 AM 24.1 °F 16.0 °F 12.9 °F 62% 30.19 in 10.0 mi NNE 6.9 mph - N/A   Clear
7:53 AM 26.1 °F 19.4 °F 17.1 °F 69% 30.27 in 10.0 mi East 5.8 mph - N/A   Clear
8:53 AM 28.9 °F 19.8 °F 12.9 °F 51% 30.28 in 10.0 mi East 10.4 mph - N/A   Clear
9:53 AM 32.0 °F 22.5 °F 9.0 °F 38% 30.26 in 10.0 mi ENE 12.7 mph - N/A   Clear
10:53 AM 34.0 °F 26.6 °F 7.0 °F 32% 30.26 in 10.0 mi ENE 9.2 mph - N/A   Clear
11:53 AM 36.0 °F 28.0 °F 6.1 °F 29% 30.27 in 10.0 mi NE 11.5 mph - N/A   Clear
12:53 PM 37.0 °F 28.9 °F 3.9 °F 25% 30.28 in 10.0 mi ENE 12.7 mph 18.4 mph N/A   Clear
1:53 PM 39.9 °F 34.5 °F 6.1 °F 25% 30.28 in 10.0 mi East 8.1 mph - N/A   Clear
2:53 PM 41.0 °F 34.3 °F 7.0 °F 25% 30.27 in 10.0 mi ENE 11.5 mph 16.1 mph N/A   Clear
3:53 PM 39.0 °F 31.4 °F 21.0 °F 49% 30.28 in 10.0 mi SE 12.7 mph - N/A   Clear
4:53 PM 39.0 °F 32.8 °F 21.9 °F 50% 30.27 in 10.0 mi SSE 9.2 mph - N/A   Clear
5:53 PM 37.0 °F 29.3 °F 23.0 °F 57% 30.28 in 10.0 mi ESE 11.5 mph - N/A   Clear
6:53 PM 34.0 °F 28.0 °F 24.1 °F 67% 30.28 in 10.0 mi ESE 6.9 mph - N/A   Clear
7:53 PM 33.1 °F 27.7 °F 23.0 °F 66% 30.29 in 10.0 mi ESE 5.8 mph - N/A   Clear
8:53 PM 32.0 °F 28.7 °F 24.1 °F 73% 30.30 in 10.0 mi ESE 3.5 mph - N/A   Clear
9:53 PM 30.9 °F 27.5 °F 24.1 °F 76% 30.31 in 10.0 mi ENE 3.5 mph - N/A   Clear
10:53 PM 30.0 °F 26.5 °F 23.0 °F 75% 30.30 in 10.0 mi NE 3.5 mph - N/A   Clear
11:53 PM 28.9 °F 23.9 °F 23.0 °F 78% 30.30 in 10.0 mi NNE 4.6 mph - N/A   Clear